PBO Station Position Time Series. Reference Frame : NAM14
Format Version,1.1.0
4-character ID,P445
Station name,WascoAirptOR2005
Begin Date, 2005-10-05
End Date, 2019-10-07
Release Date, 2019-10-08
Reference position, 45.5901229334 North Latitude, -120.6722465902 East Longitude, 436.07694 meters elevation,
Date, North (mm), East (mm), Vertical (mm), North Std. Deviation (mm), East Std. Deviation (mm),              Vertical Std. Deviation (mm), Quality,
2005-10-05,0.00, 0.00, 0.00, 2.30, 1.59, 7.29, repro,
2005-10-06,1.65, -1.02, 2.26, 2.22, 1.56, 7.09, repro,
2005-10-07,3.78, -0.57, 5.36, 2.24, 1.56, 7.09, repro,
2005-10-08,0.35, 0.02, -0.51, 2.22, 1.54, 7.02, repro,
2005-10-09,1.16, 0.84, -8.12, 2.33, 1.56, 7.10, repro,
2005-10-10,1.73, 0.52, -0.43, 2.23, 1.56, 7.05, repro,
2005-10-11,1.57, -0.54, 2.89, 2.26, 1.61, 7.25, repro,
2005-10-12,0.23, -0.42, 0.79, 2.26, 1.61, 7.24, repro,
2005-10-13,-0.21, -0.05, 1.57, 2.24, 1.60, 7.24, repro,
2005-10-14,0.20, 0.40, 1.12, 2.22, 1.54, 6.98, repro,
2005-10-15,2.67, 1.36, 6.52, 2.25, 1.56, 7.10, repro,
2005-10-16,2.28, -1.31, -5.27, 2.31, 1.62, 7.60, repro,
2005-10-17,0.95, 0.59, 9.19, 2.23, 1.57, 7.14, repro,
2005-10-18,0.31, -0.31, 6.91, 2.42, 1.72, 7.76, repro,
2005-10-19,-0.02, 0.16, 1.87, 2.34, 1.63, 7.43, repro,
2005-10-20,1.12, 0.58, 2.32, 2.35, 1.62, 7.33, repro,
2005-10-21,2.01, 0.78, -7.11, 2.26, 1.59, 7.26, repro,
2005-10-22,1.76, -0.08, -4.00, 2.22, 1.56, 7.07, repro,
2005-10-23,2.30, -0.10, -1.54, 2.31, 1.62, 7.31, repro,
2005-10-24,0.46, -0.49, -6.32, 2.27, 1.60, 7.19, repro,
2005-10-25,1.48, -0.48, 2.46, 2.34, 1.67, 7.49, repro,
2005-10-26,1.59, -0.64, 7.74, 2.33, 1.66, 7.42, repro,
2005-10-27,1.75, 0.21, -1.64, 2.25, 1.59, 7.23, repro,
2005-10-28,1.52, -0.07, 5.97, 2.23, 1.57, 7.12, repro,
2005-10-29,1.96, -0.15, -0.90, 2.26, 1.60, 7.27, repro,
2005-10-30,2.17, 0.15, -7.44, 2.28, 1.59, 7.19, repro,
2005-10-31,1.53, -0.21, 0.79, 2.43, 1.75, 7.83, repro,
2005-11-01,1.06, -0.47, -3.72, 2.41, 1.71, 7.66, repro,
2005-11-02,1.50, 0.01, -3.90, 2.38, 1.72, 7.65, repro,
2005-11-03,1.54, -0.27, 0.94, 2.34, 1.68, 7.46, repro,
2005-11-04,2.16, -0.40, -0.37, 2.28, 1.65, 7.32, repro,
2005-11-05,1.49, 0.83, -1.12, 2.40, 1.74, 7.68, repro,
2005-11-06,2.62, 0.45, -4.11, 2.34, 1.67, 7.46, repro,
2005-11-07,1.86, 0.00, -3.23, 2.38, 1.73, 7.64, repro,
2005-11-08,0.24, 0.20, -11.94, 2.37, 1.72, 7.58, repro,
2005-11-09,2.13, 0.16, -6.24, 2.41, 1.79, 7.85, repro,
2005-11-10,2.10, 0.49, -3.57, 2.50, 1.81, 7.96, repro,
2005-11-11,1.84, -0.29, 7.00, 2.47, 1.75, 7.93, repro,
2005-11-12,0.95, 0.64, -1.72, 2.30, 1.66, 7.35, repro,
2005-11-13,2.10, 0.33, -9.09, 2.51, 1.81, 7.88, repro,
2005-11-14,3.68, 1.20, -13.36, 2.28, 1.62, 7.25, repro,
2005-11-15,2.02, 0.43, -13.33, 2.21, 1.55, 7.04, repro,
2005-11-16,3.29, -0.43, -15.38, 2.30, 1.64, 7.40, repro,
2005-11-17,1.20, -0.59, -14.74, 2.24, 1.56, 7.14, repro,
2005-11-18,1.77, -0.65, -13.71, 2.23, 1.56, 7.11, repro,
2005-11-19,1.30, -0.10, -9.97, 2.23, 1.57, 7.16, repro,
2005-11-20,2.83, 0.47, -20.85, 2.29, 1.63, 7.43, repro,
2005-11-21,1.32, 0.85, -16.59, 2.32, 1.63, 7.44, repro,
2005-11-22,1.90, 0.53, -14.35, 2.31, 1.66, 7.46, repro,
2005-11-23,1.71, -0.75, -7.64, 2.26, 1.60, 7.30, repro,
2005-11-24,1.17, 0.37, -2.93, 2.24, 1.57, 7.17, repro,
2005-11-25,1.95, -0.52, 0.84, 2.25, 1.60, 7.23, repro,
2005-11-26,1.32, -0.60, 0.56, 2.33, 1.66, 7.52, repro,
2005-11-27,1.75, -1.17, -7.08, 2.27, 1.61, 7.28, repro,
2005-11-28,2.33, 0.04, -7.29, 2.29, 1.62, 7.38, repro,
2005-11-29,0.91, -0.95, -3.88, 2.31, 1.62, 7.39, repro,
2005-11-30,2.57, -0.23, -6.88, 2.31, 1.62, 7.34, repro,
2005-12-01,1.74, -0.56, -10.22, 2.22, 1.57, 7.11, repro,
2005-12-02,1.55, -1.37, -4.80, 2.24, 1.57, 7.13, repro,
2005-12-03,0.73, -0.03, -6.43, 2.23, 1.57, 7.09, repro,
2005-12-04,2.56, -0.95, -16.42, 2.24, 1.57, 7.14, repro,
2005-12-05,1.82, -0.46, -13.01, 2.24, 1.59, 7.19, repro,
2005-12-06,1.44, 0.37, -13.90, 2.24, 1.58, 7.18, repro,
2005-12-07,0.63, -0.01, -9.94, 2.26, 1.61, 7.26, repro,
2005-12-08,0.34, -0.40, -12.78, 2.28, 1.62, 7.31, repro,
2005-12-09,0.90, -0.37, -11.38, 2.23, 1.56, 7.10, repro,
2005-12-10,0.56, -0.28, -10.98, 2.28, 1.62, 7.33, repro,
2005-12-11,0.82, -0.33, -8.92, 2.25, 1.59, 7.21, repro,
2005-12-12,1.49, -0.22, -7.89, 2.21, 1.54, 7.04, repro,
2005-12-13,1.15, -0.25, -8.60, 2.27, 1.59, 7.27, repro,
2005-12-14,0.94, -1.24, -15.14, 2.24, 1.56, 7.12, repro,
2005-12-15,2.70, -1.18, -14.02, 2.29, 1.59, 7.28, repro,
2005-12-16,2.51, -1.51, -8.41, 2.30, 1.58, 7.22, repro,
2005-12-17,2.93, -1.58, -8.54, 2.29, 1.62, 7.27, repro,
2005-12-18,2.88, -1.77, -8.20, 2.32, 1.69, 7.46, repro,
2005-12-19,1.44, -2.93, -16.85, 2.42, 1.74, 7.66, repro,
2005-12-20,2.02, -0.53, -21.42, 2.29, 1.66, 7.30, repro,
2005-12-21,0.05, -1.66, -10.78, 2.28, 1.66, 7.34, repro,
2005-12-22,2.04, -0.69, -4.22, 2.29, 1.67, 7.33, repro,
2005-12-23,1.49, -2.33, -15.70, 2.31, 1.64, 7.19, repro,
2005-12-24,2.21, -0.50, -11.22, 2.52, 1.83, 8.32, repro,
2005-12-25,1.17, -0.98, -11.19, 2.33, 1.67, 7.40, repro,
2005-12-26,0.67, -1.18, -6.50, 2.25, 1.59, 7.08, repro,
2005-12-27,0.46, -2.04, -10.02, 2.33, 1.67, 7.47, repro,
2005-12-28,1.42, -0.59, -12.12, 2.27, 1.62, 7.17, repro,
2005-12-29,1.48, -0.75, -8.22, 2.45, 1.73, 8.05, repro,
2005-12-30,0.88, -0.46, -4.57, 2.51, 1.82, 8.14, repro,
2005-12-31,0.39, -1.06, -3.10, 2.46, 1.74, 8.02, repro,
2006-01-01,1.56, -1.33, -3.83, 2.39, 1.70, 7.68, repro,
2006-01-02,2.05, -1.48, -3.55, 2.31, 1.66, 7.23, repro,
2006-01-03,1.81, 0.01, -10.89, 2.56, 1.93, 8.36, repro,
2006-01-04,1.29, -1.66, -18.00, 2.62, 1.99, 8.48, repro,
2006-01-05,0.61, -0.90, -20.69, 2.37, 1.73, 7.80, repro,
2006-01-06,-0.97, 0.13, -12.60, 2.43, 1.81, 7.84, repro,
2006-01-07,1.16, -1.25, -9.90, 2.35, 1.68, 7.55, repro,
2006-01-08,2.32, -1.63, -15.88, 2.30, 1.68, 7.42, repro,
2006-01-09,0.33, -1.50, -10.61, 2.37, 1.74, 7.76, repro,
2006-01-10,0.57, -2.91, -0.83, 2.38, 1.75, 7.77, repro,
2006-01-11,-0.50, -1.02, -2.99, 2.36, 1.70, 7.54, repro,
2006-01-12,1.88, -0.95, -14.79, 2.33, 1.70, 7.38, repro,
2006-01-13,0.74, -0.69, -9.66, 2.42, 1.75, 7.97, repro,
2006-01-14,1.61, -0.83, -8.46, 2.28, 1.63, 7.24, repro,
2006-01-15,1.28, -1.56, -7.61, 2.25, 1.60, 7.13, repro,
2006-01-16,1.08, -1.49, -14.95, 2.38, 1.77, 7.66, repro,
2006-01-17,1.09, -1.09, -11.05, 2.35, 1.69, 7.41, repro,
2006-01-18,1.66, -2.13, -5.95, 2.24, 1.59, 7.10, repro,
2006-01-19,1.89, -0.48, -12.27, 2.30, 1.62, 7.36, repro,
2006-01-20,1.86, -0.91, -13.69, 2.27, 1.59, 7.17, repro,
2006-01-21,0.34, 0.31, -12.89, 2.25, 1.57, 7.09, repro,
2006-01-22,2.91, -1.09, -17.14, 2.24, 1.56, 7.04, repro,
2006-01-23,1.11, -1.64, -12.62, 2.24, 1.56, 7.01, repro,
2006-01-24,1.85, -0.97, -21.34, 2.28, 1.60, 7.19, repro,
2006-01-25,1.01, -0.58, -13.58, 2.16, 1.52, 6.84, repro,
2006-01-26,1.04, -0.06, -17.70, 2.18, 1.52, 6.85, repro,
2006-01-27,1.48, -1.57, -11.65, 2.20, 1.54, 6.97, repro,
2006-01-28,2.12, -1.76, -10.27, 2.19, 1.52, 6.90, repro,
2006-01-29,1.73, -1.17, -18.95, 2.19, 1.53, 6.93, repro,
2006-01-30,-0.68, -1.17, -12.57, 2.17, 1.52, 6.86, repro,
2006-01-31,1.13, -2.12, -8.12, 2.18, 1.53, 6.94, repro,
2006-02-01,-0.49, -2.15, -8.25, 2.19, 1.53, 6.95, repro,
2006-02-02,0.85, -2.82, -4.03, 2.21, 1.53, 7.00, repro,
2006-02-03,0.27, -0.86, -11.67, 2.19, 1.51, 6.93, repro,
2006-02-04,0.85, -2.91, -13.29, 2.20, 1.52, 6.98, repro,
2006-02-05,0.51, -1.08, -9.72, 2.17, 1.51, 6.89, repro,
2006-02-06,0.67, -1.23, -20.17, 2.20, 1.53, 7.03, repro,
2006-02-07,0.42, -1.06, -19.86, 2.20, 1.52, 7.00, repro,
2006-02-08,1.07, -0.98, -21.58, 2.26, 1.57, 7.16, repro,
2006-02-09,0.97, -1.41, -26.38, 2.26, 1.53, 7.05, repro,
2006-02-10,1.37, -1.14, -24.12, 2.31, 1.55, 7.08, repro,
2006-02-11,1.29, -0.92, -24.29, 2.18, 1.52, 6.98, repro,
2006-02-12,1.03, -1.41, -22.02, 2.22, 1.52, 7.04, repro,
2006-02-13,1.55, -0.96, -18.76, 2.21, 1.52, 7.06, repro,
2006-02-14,-0.01, -0.27, -13.19, 2.21, 1.51, 7.00, repro,
2006-02-15,1.21, -0.99, -17.23, 2.19, 1.51, 6.94, repro,
2006-02-16,1.59, -0.85, -19.34, 2.18, 1.51, 6.96, repro,
2006-02-17,2.27, -0.97, -20.21, 2.22, 1.53, 7.04, repro,
2006-02-18,1.11, -0.89, -19.01, 2.22, 1.52, 7.04, repro,
2006-02-19,1.96, -1.34, -13.16, 2.25, 1.53, 7.04, repro,
2006-02-20,0.56, -1.41, -12.27, 2.20, 1.51, 6.95, repro,
2006-02-21,0.67, -0.90, -12.23, 2.19, 1.52, 6.94, repro,
2006-02-22,2.33, -0.86, -15.41, 2.19, 1.53, 6.98, repro,
2006-02-23,1.78, -2.20, -18.20, 2.20, 1.53, 6.99, repro,
2006-02-24,2.71, -1.77, -12.00, 2.21, 1.53, 7.02, repro,
2006-02-25,1.82, -0.53, -16.34, 2.20, 1.52, 6.98, repro,
2006-02-26,1.21, -1.24, -14.13, 2.19, 1.52, 6.94, repro,
2006-02-27,0.29, 0.07, -5.23, 2.20, 1.53, 7.02, repro,
2006-02-28,1.19, -1.05, -2.27, 2.24, 1.55, 7.07, repro,
2006-03-01,0.62, -0.69, -12.49, 2.30, 1.59, 7.27, repro,
2006-03-02,0.91, -1.23, -4.87, 2.18, 1.53, 6.97, repro,
2006-03-03,1.95, -1.04, -10.19, 2.26, 1.53, 7.13, repro,
2006-03-04,2.02, -0.57, -15.39, 2.19, 1.53, 6.98, repro,
2006-03-05,0.74, -0.40, -12.92, 2.17, 1.53, 6.94, repro,
2006-03-06,0.94, -0.59, -14.47, 2.18, 1.53, 6.94, repro,
2006-03-07,1.79, -0.99, -7.81, 2.19, 1.54, 7.00, repro,
2006-03-08,1.01, -1.60, -14.76, 2.18, 1.52, 6.93, repro,
2006-03-09,2.33, -2.58, -1.06, 2.18, 1.52, 6.95, repro,
2006-03-10,2.47, -1.41, -2.34, 2.18, 1.53, 6.96, repro,
2006-03-11,1.79, -1.25, -7.65, 2.24, 1.55, 7.11, repro,
2006-03-12,1.57, -1.40, -10.59, 2.23, 1.55, 7.12, repro,
2006-03-13,1.53, -1.04, -14.61, 2.23, 1.56, 7.14, repro,
2006-03-14,1.67, -0.89, -10.38, 2.22, 1.54, 7.06, repro,
2006-03-15,0.87, -1.30, -13.34, 2.22, 1.56, 7.10, repro,
2006-03-16,1.91, -1.33, -18.83, 2.31, 1.60, 7.38, repro,
2006-03-17,2.35, -1.20, -18.48, 2.30, 1.59, 7.35, repro,
2006-03-18,2.03, -0.46, -18.86, 2.24, 1.57, 7.20, repro,
2006-03-19,1.60, -2.00, -16.23, 2.23, 1.55, 7.13, repro,
2006-03-20,2.01, -1.84, -13.28, 2.22, 1.55, 7.10, repro,
2006-03-21,1.33, -1.27, -8.97, 2.22, 1.57, 7.13, repro,
2006-03-22,0.74, -1.43, -17.06, 2.26, 1.59, 7.22, repro,
2006-03-23,1.50, -0.77, -19.43, 2.30, 1.60, 7.27, repro,
2006-03-24,-1.24, -2.96, -15.75, 2.29, 1.60, 7.25, repro,
2006-03-25,0.66, -1.47, -11.07, 2.26, 1.58, 7.14, repro,
2006-03-26,1.34, -2.71, -8.02, 2.28, 1.59, 7.20, repro,
2006-03-27,1.04, -1.25, -9.64, 2.27, 1.60, 7.21, repro,
2006-03-28,1.80, -1.18, -7.79, 2.20, 1.55, 7.00, repro,
2006-03-29,1.34, -1.71, -6.84, 2.17, 1.55, 7.02, repro,
2006-03-30,1.27, -1.14, -10.22, 2.15, 1.54, 6.94, repro,
2006-03-31,0.99, -1.54, -9.61, 2.15, 1.55, 6.97, repro,
2006-04-01,0.96, -1.73, -7.56, 2.14, 1.55, 6.96, repro,
2006-04-02,2.01, -1.21, -18.64, 2.17, 1.59, 7.10, repro,
2006-04-03,0.89, -1.16, -12.78, 2.16, 1.55, 6.97, repro,
2006-04-04,1.84, -1.96, -6.99, 2.17, 1.56, 7.03, repro,
2006-04-05,1.71, -1.61, -6.14, 2.15, 1.54, 6.93, repro,
2006-04-06,0.65, -1.45, -7.13, 2.18, 1.58, 7.19, repro,
2006-04-07,0.60, -0.40, -11.83, 2.26, 1.60, 7.32, repro,
2006-04-08,0.77, -1.61, -8.09, 2.29, 1.58, 7.30, repro,
2006-04-09,1.21, -1.97, -10.52, 2.17, 1.55, 7.00, repro,
2006-04-10,0.88, -1.78, -9.02, 2.16, 1.55, 7.00, repro,
2006-04-11,1.70, -1.67, -6.46, 2.20, 1.57, 7.20, repro,
2006-04-12,0.78, -0.97, -10.61, 2.21, 1.58, 7.24, repro,
2006-04-13,1.15, -1.93, -12.75, 2.15, 1.54, 6.99, repro,
2006-04-14,0.57, -1.42, -4.13, 2.17, 1.55, 7.02, repro,
2006-04-15,2.31, -1.68, -2.93, 2.21, 1.58, 7.21, repro,
2006-04-16,1.40, -2.33, -8.28, 2.15, 1.55, 7.00, repro,
2006-04-17,0.53, -1.84, -11.73, 2.15, 1.54, 7.00, repro,
2006-04-18,0.56, -1.12, -17.17, 2.14, 1.54, 6.97, repro,
2006-04-19,0.76, -2.13, -15.41, 2.17, 1.54, 7.01, repro,
2006-04-20,1.38, -1.49, -7.05, 2.20, 1.57, 7.12, repro,
2006-04-21,1.18, -1.51, -7.00, 2.15, 1.54, 6.98, repro,
2006-04-22,1.67, -1.61, -10.88, 2.20, 1.59, 7.22, repro,
2006-04-23,2.38, -1.54, -10.40, 2.19, 1.59, 7.18, repro,
2006-04-24,1.91, -0.83, -14.06, 2.19, 1.59, 7.16, repro,
2006-04-25,0.77, -0.99, -13.88, 2.19, 1.58, 7.13, repro,
2006-04-26,1.84, -0.07, -12.35, 2.19, 1.58, 7.14, repro,
2006-04-27,2.21, -2.51, -6.08, 2.25, 1.60, 7.27, repro,
2006-04-28,2.12, -1.66, -14.10, 2.22, 1.56, 7.14, repro,
2006-04-29,1.27, -1.43, -11.73, 2.15, 1.54, 7.03, repro,
2006-04-30,1.41, -1.31, -13.93, 2.24, 1.57, 7.24, repro,
2006-05-01,2.08, -1.10, -20.64, 2.20, 1.60, 7.12, repro,
2006-05-02,0.76, -1.32, -16.79, 2.15, 1.53, 6.97, repro,
2006-05-03,1.88, -1.57, -10.83, 2.16, 1.55, 7.07, repro,
2006-05-04,1.50, -1.68, -13.91, 2.16, 1.54, 7.03, repro,
2006-05-05,0.59, -1.34, -10.31, 2.17, 1.54, 7.02, repro,
2006-05-06,1.18, -3.43, -0.52, 2.16, 1.53, 6.98, repro,
2006-05-07,1.74, -2.44, -4.94, 2.15, 1.53, 6.98, repro,
2006-05-08,1.41, -3.31, -7.22, 2.14, 1.54, 6.99, repro,
2006-05-09,1.47, -1.67, -10.30, 2.23, 1.58, 7.16, repro,
2006-05-10,1.88, -1.84, -13.14, 2.16, 1.54, 7.06, repro,
2006-05-11,0.58, -1.40, -11.54, 2.19, 1.54, 7.07, repro,
2006-05-12,1.07, -1.98, -15.58, 2.16, 1.54, 7.01, repro,
2006-05-13,1.18, -1.32, -12.47, 2.15, 1.53, 7.00, repro,
2006-05-14,2.07, -2.04, -12.10, 2.15, 1.53, 7.02, repro,
2006-05-15,1.40, -0.85, -15.13, 2.16, 1.54, 7.08, repro,
2006-05-16,1.38, -1.11, -14.32, 2.18, 1.58, 7.27, repro,
2006-05-17,-0.05, -1.17, -12.12, 2.19, 1.56, 7.17, repro,
2006-05-18,-0.20, -0.18, -1.79, 2.25, 1.59, 7.30, repro,
2006-05-19,1.62, -1.66, -3.70, 2.24, 1.58, 7.22, repro,
2006-05-20,0.93, -2.65, -1.00, 2.23, 1.57, 7.16, repro,
2006-05-21,0.28, -2.85, -1.55, 2.26, 1.58, 7.19, repro,
2006-05-22,2.06, -3.11, -5.24, 2.32, 1.67, 7.62, repro,
2006-05-23,0.66, -3.36, -2.73, 2.24, 1.57, 7.17, repro,
2006-05-24,1.00, -3.46, -8.11, 2.24, 1.58, 7.22, repro,
2006-05-25,2.19, -1.74, -12.99, 2.28, 1.59, 7.33, repro,
2006-05-26,1.00, -2.23, -5.28, 2.29, 1.61, 7.42, repro,
2006-05-27,0.98, -1.40, -5.52, 2.25, 1.58, 7.26, repro,
2006-05-28,1.18, -1.96, -5.30, 2.25, 1.57, 7.23, repro,
2006-05-29,0.61, -2.12, -3.47, 2.25, 1.58, 7.23, repro,
2006-05-30,1.59, -2.02, -11.72, 2.27, 1.60, 7.30, repro,
2006-05-31,1.48, -1.16, -11.10, 2.22, 1.57, 7.19, repro,
2006-06-01,2.55, -1.97, -7.87, 2.28, 1.61, 7.37, repro,
2006-06-02,0.33, -2.50, -9.79, 2.44, 1.67, 7.74, repro,
2006-06-03,2.44, -2.39, -9.55, 2.34, 1.61, 7.44, repro,
2006-06-04,1.94, -1.08, -5.90, 2.27, 1.60, 7.29, repro,
2006-06-05,0.94, -1.32, -4.13, 2.28, 1.60, 7.31, repro,
2006-06-06,1.02, -1.61, -9.58, 2.28, 1.60, 7.34, repro,
2006-06-07,0.63, -1.67, -14.58, 2.31, 1.60, 7.35, repro,
2006-06-08,2.16, -1.40, -11.61, 2.23, 1.57, 7.13, repro,
2006-06-09,1.33, -0.98, -11.79, 2.23, 1.57, 7.13, repro,
2006-06-10,1.36, -1.90, -9.10, 2.24, 1.57, 7.16, repro,
2006-06-11,1.60, -1.64, -10.70, 2.24, 1.57, 7.19, repro,
2006-06-12,0.69, -1.42, -4.90, 2.22, 1.57, 7.15, repro,
2006-06-13,1.58, -1.60, -7.03, 2.31, 1.60, 7.33, repro,
2006-06-14,0.92, -1.86, -3.34, 2.23, 1.58, 7.16, repro,
2006-06-15,0.06, -1.77, -3.53, 2.22, 1.57, 7.13, repro,
2006-06-16,0.72, -3.15, -6.02, 2.24, 1.58, 7.22, repro,
2006-06-17,0.96, -0.91, -6.65, 2.24, 1.58, 7.23, repro,
2006-06-18,0.83, -1.18, -2.06, 2.26, 1.61, 7.34, repro,
2006-06-19,-0.56, -1.54, -7.89, 2.26, 1.61, 7.35, repro,
2006-06-20,-0.13, -2.03, -5.32, 2.26, 1.62, 7.36, repro,
2006-06-21,1.18, -1.55, -10.18, 2.26, 1.61, 7.35, repro,
2006-06-22,1.80, -1.42, -12.78, 2.25, 1.61, 7.33, repro,
2006-06-23,0.98, -0.99, -6.82, 2.27, 1.62, 7.38, repro,
2006-06-24,0.87, -1.29, -11.31, 2.25, 1.61, 7.33, repro,
2006-06-25,1.15, -1.16, -14.51, 2.25, 1.62, 7.33, repro,
2006-06-26,0.40, -1.63, -8.72, 2.25, 1.62, 7.36, repro,
2006-06-27,0.49, -1.98, -3.90, 2.43, 1.73, 7.86, repro,
2006-06-28,0.41, -2.86, -5.14, 2.31, 1.68, 7.59, repro,
2006-06-29,0.87, -2.85, -3.12, 2.19, 1.58, 7.23, repro,
2006-06-30,1.42, -0.91, -8.51, 2.30, 1.60, 7.37, repro,
2006-07-01,2.20, -1.79, -9.13, 2.21, 1.58, 7.27, repro,
2006-07-02,2.16, -1.35, -7.03, 2.25, 1.61, 7.41, repro,
2006-07-03,1.05, -1.06, -9.79, 2.23, 1.58, 7.35, repro,
2006-07-04,0.05, -1.49, -14.11, 2.30, 1.61, 7.62, repro,
2006-07-05,2.15, -0.84, -3.46, 2.23, 1.57, 7.27, repro,
2006-07-06,1.33, 0.08, -9.07, 2.28, 1.62, 7.40, repro,
2006-07-07,0.84, -0.64, -9.44, 2.22, 1.58, 7.28, repro,
2006-07-08,1.37, -0.63, -10.64, 2.21, 1.58, 7.29, repro,
2006-07-09,1.32, -1.44, -1.09, 2.20, 1.58, 7.29, repro,
2006-07-10,1.15, -0.92, -8.27, 2.22, 1.56, 7.26, repro,
2006-07-11,1.97, -0.28, 1.35, 2.23, 1.57, 7.29, repro,
2006-07-12,1.78, -1.79, -4.64, 2.23, 1.60, 7.40, repro,
2006-07-13,0.76, -0.92, -2.48, 2.21, 1.58, 7.30, repro,
2006-07-14,0.89, 0.88, -4.70, 2.21, 1.57, 7.31, repro,
2006-07-15,-0.76, 0.23, -1.29, 2.22, 1.58, 7.34, repro,
2006-07-16,1.33, -1.17, -2.03, 2.22, 1.57, 7.28, repro,
2006-07-17,1.61, -1.28, -0.83, 2.25, 1.61, 7.44, repro,
2006-07-18,-0.20, -1.48, -1.53, 2.17, 1.56, 7.11, repro,
2006-07-19,0.99, -0.44, -13.68, 2.15, 1.55, 7.07, repro,
2006-07-20,0.79, -0.44, -2.62, 2.15, 1.55, 7.08, repro,
2006-07-21,1.65, -0.56, -9.69, 2.16, 1.54, 7.04, repro,
2006-07-22,1.67, -2.13, -2.36, 2.16, 1.54, 7.03, repro,
2006-07-23,0.85, -0.56, 1.37, 2.17, 1.55, 7.10, repro,
2006-07-24,0.72, -1.44, -2.21, 2.17, 1.56, 7.13, repro,
2006-07-25,2.16, -0.65, -4.61, 2.16, 1.55, 7.07, repro,
2006-07-26,0.46, -1.40, -8.93, 2.15, 1.54, 7.04, repro,
2006-07-27,0.27, -1.51, -1.44, 2.15, 1.54, 7.01, repro,
2006-07-28,3.08, -1.02, 6.91, 2.16, 1.55, 7.04, repro,
2006-07-29,1.97, -1.61, -0.80, 2.16, 1.56, 7.10, repro,
2006-07-30,1.87, -2.22, -0.96, 2.19, 1.61, 7.20, repro,
2006-07-31,2.24, -1.07, 0.60, 2.15, 1.55, 7.05, repro,
2006-08-01,2.76, -2.56, -1.42, 2.15, 1.55, 7.04, repro,
2006-08-02,1.43, -1.85, -0.36, 2.19, 1.59, 7.28, repro,
2006-08-03,1.44, -1.54, 0.28, 2.24, 1.65, 7.46, repro,
2006-08-04,2.36, -2.41, 0.29, 2.26, 1.63, 7.49, repro,
2006-08-05,1.26, -2.00, -2.87, 2.23, 1.65, 7.44, repro,
2006-08-06,0.69, -1.65, -2.33, 2.20, 1.60, 7.34, repro,
2006-08-07,2.39, -1.64, 2.97, 2.19, 1.59, 7.29, repro,
2006-08-08,-0.37, -2.57, -0.13, 2.16, 1.55, 7.06, repro,
2006-08-09,2.04, -1.28, 5.56, 2.16, 1.56, 7.10, repro,
2006-08-10,1.98, -3.28, -4.65, 2.16, 1.56, 7.13, repro,
2006-08-11,0.99, -0.98, -2.25, 2.36, 1.70, 7.56, repro,
2006-08-12,0.90, -1.36, -4.37, 2.15, 1.55, 7.05, repro,
2006-08-13,1.35, -1.44, 2.88, 2.21, 1.60, 7.23, repro,
2006-08-14,1.34, -1.50, 1.72, 2.24, 1.66, 7.36, repro,
2006-08-15,1.02, 1.14, 4.80, 2.29, 1.63, 7.34, repro,
2006-08-16,0.02, -1.81, 0.37, 2.14, 1.54, 7.05, repro,
2006-08-17,1.05, -1.75, -1.23, 2.14, 1.55, 7.02, repro,
2006-08-18,1.73, -0.31, 0.71, 2.18, 1.60, 7.20, repro,
2006-08-19,1.29, -1.38, 2.80, 2.16, 1.55, 7.08, repro,
2006-08-20,1.79, -1.39, 4.20, 2.15, 1.56, 7.04, repro,
2006-08-21,1.43, -0.84, 0.80, 2.17, 1.57, 7.17, repro,
2006-08-22,2.64, 0.69, -8.65, 2.17, 1.56, 7.10, repro,
2006-08-23,1.04, -0.78, -2.54, 2.18, 1.58, 7.20, repro,
2006-08-24,1.44, -1.08, 0.24, 2.16, 1.58, 7.16, repro,
2006-08-25,0.01, -0.47, -0.00, 2.21, 1.61, 7.33, repro,
2006-08-26,1.19, -0.87, 1.47, 2.25, 1.65, 7.56, repro,
2006-08-27,2.16, -1.22, -0.74, 2.24, 1.67, 7.52, repro,
2006-08-28,1.73, -0.49, 0.25, 2.24, 1.66, 7.52, repro,
2006-08-29,2.30, -0.73, 1.49, 2.25, 1.66, 7.53, repro,
2006-08-30,0.91, -1.41, 2.79, 2.24, 1.66, 7.54, repro,
2006-08-31,1.80, -1.61, -3.23, 2.26, 1.66, 7.58, repro,
2006-09-01,1.42, -0.44, -4.48, 2.23, 1.66, 7.50, repro,
2006-09-02,1.02, -0.52, -5.61, 2.23, 1.66, 7.47, repro,
2006-09-03,2.10, -1.44, 1.51, 2.23, 1.66, 7.52, repro,
2006-09-04,2.15, -0.49, -0.08, 2.32, 1.69, 7.68, repro,
2006-09-05,2.44, -1.27, -3.71, 2.34, 1.69, 7.75, repro,
2006-09-06,2.23, -1.83, -3.65, 2.26, 1.67, 7.60, repro,
2006-09-07,0.96, -1.36, 2.76, 2.28, 1.71, 7.80, repro,
2006-09-08,2.04, -1.85, 5.57, 2.28, 1.71, 7.83, repro,
2006-09-09,1.04, -1.12, 6.11, 2.25, 1.67, 7.50, repro,
2006-09-10,1.90, -0.39, 1.73, 2.21, 1.61, 7.29, repro,
2006-09-11,1.97, -2.20, 0.30, 2.24, 1.63, 7.39, repro,
2006-09-12,1.44, -1.83, -1.45, 2.23, 1.62, 7.36, repro,
2006-09-13,1.21, -1.99, 8.46, 2.21, 1.62, 7.33, repro,
2006-09-14,2.51, -1.89, 2.70, 2.31, 1.70, 7.60, repro,
2006-09-15,2.03, -1.39, 5.36, 2.25, 1.60, 7.24, repro,
2006-09-16,1.37, -1.30, 7.80, 2.18, 1.58, 7.17, repro,
2006-09-17,1.46, -1.07, 3.16, 2.18, 1.58, 7.19, repro,
2006-09-18,1.39, -1.53, 3.35, 2.18, 1.58, 7.21, repro,
2006-09-19,0.49, -1.62, 6.98, 2.16, 1.57, 7.13, repro,
2006-09-20,1.40, -1.53, 5.98, 2.17, 1.57, 7.12, repro,
2006-09-21,-0.25, -2.63, 7.39, 2.22, 1.63, 7.31, repro,
2006-09-22,1.24, -1.30, 3.40, 2.26, 1.67, 7.49, repro,
2006-09-23,0.59, -0.82, 3.58, 2.24, 1.62, 7.35, repro,
2006-09-24,1.32, -1.63, -1.23, 2.24, 1.61, 7.26, repro,
2006-09-25,1.64, -1.54, 1.64, 2.29, 1.63, 7.41, repro,
2006-09-26,1.67, -1.04, -0.24, 2.18, 1.58, 7.11, repro,
2006-09-27,0.44, -1.51, -6.05, 2.18, 1.59, 7.17, repro,
2006-09-28,1.63, -1.27, 1.59, 2.24, 1.64, 7.36, repro,
2006-09-29,0.77, -1.22, 3.14, 2.24, 1.63, 7.37, repro,
2006-09-30,1.32, -1.39, 11.88, 2.25, 1.69, 7.60, repro,
2006-10-01,1.55, -2.41, 11.97, 2.24, 1.63, 7.43, repro,
2006-10-02,0.75, -1.93, 2.61, 2.25, 1.66, 7.35, repro,
2006-10-03,0.97, -0.85, -5.18, 2.28, 1.69, 7.57, repro,
2006-10-04,1.62, -1.15, 4.33, 2.20, 1.59, 7.20, repro,
2006-10-05,1.14, -1.55, 1.56, 2.20, 1.58, 7.16, repro,
2006-10-06,1.29, -0.22, 0.79, 2.21, 1.59, 7.21, repro,
2006-10-07,1.25, -1.29, -4.45, 2.30, 1.67, 7.54, repro,
2006-10-08,1.36, -0.24, -9.14, 2.24, 1.64, 7.40, repro,
2006-10-09,1.95, -0.73, -5.98, 2.32, 1.71, 7.64, repro,
2006-10-10,2.95, -0.80, -3.15, 2.22, 1.62, 7.36, repro,
2006-10-11,-0.01, -1.02, 0.11, 2.25, 1.63, 7.43, repro,
2006-10-12,0.81, -0.95, 3.53, 2.20, 1.59, 7.18, repro,
2006-10-13,1.36, -1.21, 5.39, 2.16, 1.58, 7.12, repro,
2006-10-14,1.81, -1.17, 2.37, 2.29, 1.72, 7.79, repro,
2006-10-15,-0.13, -0.76, 11.15, 2.20, 1.63, 7.33, repro,
2006-10-16,0.96, -0.90, 6.24, 2.18, 1.60, 7.29, repro,
2006-10-17,1.93, -0.84, 10.59, 2.33, 1.67, 7.80, repro,
2006-10-18,1.42, -0.02, -3.33, 2.17, 1.61, 7.32, repro,
2006-10-19,-0.07, -0.47, 8.64, 2.29, 1.67, 7.62, repro,
2006-10-20,0.19, -1.50, 3.76, 2.62, 1.92, 8.91, repro,
2006-10-21,0.84, -0.68, -0.48, 2.51, 1.86, 8.60, repro,
2006-10-22,-0.21, 0.02, -4.65, 2.23, 1.64, 7.48, repro,
2006-10-23,-0.17, -1.52, -3.34, 2.33, 1.76, 7.81, repro,
2006-10-24,0.32, -0.92, 4.15, 2.38, 1.69, 7.85, repro,
2006-10-25,-0.32, -0.79, 2.47, 2.38, 1.71, 7.85, repro,
2006-10-26,0.85, -0.11, 1.65, 2.27, 1.70, 7.65, repro,
2006-10-27,0.89, 0.02, -4.83, 2.20, 1.63, 7.33, repro,
2006-10-28,-0.12, -0.44, -4.73, 2.34, 1.70, 7.68, repro,
2006-10-29,0.52, 0.16, -0.63, 2.15, 1.60, 7.25, repro,
2006-10-30,1.36, -0.17, 0.36, 2.17, 1.61, 7.26, repro,
2006-10-31,0.84, -0.60, -0.92, 2.29, 1.66, 7.64, repro,
2006-11-01,0.87, -1.29, -4.27, 2.31, 1.66, 7.72, repro,
2006-11-02,1.90, -0.71, 0.94, 2.18, 1.61, 7.33, repro,
2006-11-03,0.71, -0.86, -0.50, 2.20, 1.64, 7.43, repro,
2006-11-04,0.34, -0.03, 2.49, 2.24, 1.65, 7.43, repro,
2006-11-05,0.36, -1.23, -6.57, 2.32, 1.71, 7.75, repro,
2006-11-06,1.20, -0.38, -8.56, 2.15, 1.58, 7.16, repro,
2006-11-07,0.34, -3.36, -1.65, 2.36, 1.72, 7.77, repro,
2006-11-08,1.39, 0.04, -2.02, 2.27, 1.65, 7.42, repro,
2006-11-09,2.23, -1.34, 2.82, 2.36, 1.73, 7.75, repro,
2006-11-10,2.06, -1.38, -4.48, 2.22, 1.60, 7.21, repro,
2006-11-11,2.95, -1.84, 0.58, 2.28, 1.64, 7.42, repro,
2006-11-12,0.28, -1.13, -9.68, 2.36, 1.70, 7.62, repro,
2006-11-13,1.95, -1.17, 3.32, 2.30, 1.64, 7.34, repro,
2006-11-14,0.32, -2.49, 2.66, 2.16, 1.58, 7.14, repro,
2006-11-15,1.43, -0.98, -1.74, 2.11, 1.56, 7.04, repro,
2006-11-16,1.07, -0.38, -1.73, 2.13, 1.56, 7.03, repro,
2006-11-17,1.44, -1.68, -4.98, 2.15, 1.58, 7.16, repro,
2006-11-18,1.25, -1.12, -10.20, 2.15, 1.57, 7.11, repro,
2006-11-19,1.51, -1.14, -7.96, 2.13, 1.57, 7.09, repro,
2006-11-20,2.28, -1.38, -4.67, 2.12, 1.57, 7.08, repro,
2006-11-21,1.43, -1.62, -5.94, 2.10, 1.56, 6.99, repro,
2006-11-22,2.44, -2.03, -2.39, 2.11, 1.58, 7.07, repro,
2006-11-23,0.22, -2.27, -7.65, 2.17, 1.62, 7.32, repro,
2006-11-24,0.16, -2.20, -10.24, 2.25, 1.66, 7.53, repro,
2006-11-25,1.17, -1.77, -4.26, 2.13, 1.57, 7.06, repro,
2006-11-26,1.63, -1.49, -3.30, 2.14, 1.58, 7.07, repro,
2006-11-27,1.11, -2.41, -4.66, 2.16, 1.59, 7.10, repro,